Voltar ao catálogo

STARLINK-4092

AtivoComunicaçõesVLEO
NORAD 52838·PAYLOAD·🇺🇸 United States

Lançado Jun 17, 2022 de Cape Canaveral Space Force Station

Loading…

Próximas Passagens (próximas 24 horas)

TLE

AtualizadoSource: CelesTrak SupGP

Época: Sep 15, 2026, 02:37 UTC

1 52838C 22062J   26258.10951389 -.00034154  00000+0 -10983-2 0  2586
2 52838  53.1586 253.9280 0001376  89.6787 212.1099 15.31719761    13

Acompanhe STARLINK-4092 em tempo real com AllMySat

Download on the App Store